Location: Bergheim
(50.9593°N, 6.6400°E)
Time: 07:33:17
(UTC+01:00)

ISS - Pass Details

Date: 28 November 2019
Orbit: 411 x 421 km, 51.6° (Epoch: 12 December)

Event Time Altitude Azimuth Distance (km) Brightness Sun altitude
Rises 20:00:51 0° 275° (W) 2,362 1.2 -32.0°
Reaches altitude 10° 20:02:57 10° 277° (W) 1,500 -0.1 -32.3°
Enters shadow 20:03:01 11° 277° (W) 1,470 -0.2 -32.3°
